Regional Weather Roundup
Issued by NWS Boston, MA

Home | Current Version | Previous Version | Text Only | Print | Product List | Glossary On
Versions: 1 2 3 4 5 6 7 8 9 10 11 12 13 14 15 16 17 18 19 20 21 22 23 24 25 26 27 28
000
ASUS41 KBOX 240410
RWRBOX

REGIONAL WEATHER ROUNDUP
NATIONAL WEATHER SERVICE TAUNTON MA
1200 AM EDT THU APR 24 2014

NOTE:  "FAIR" INDICATES FEW OR NO CLOUDS BELOW 12,000 FEET WITH NO
SIGNIFICANT WEATHER AND/OR OBSTRUCTIONS TO VISIBILITY.  THE FOLLOWING
OBSERVATION LOCATIONS DO NOT REPORT PRESENT WEATHER...PROVINCETOWN...
SMITHFIELD...BLOCK ISLAND...KEENE...AND OXFORD.

MAZALL-240500-
EASTERN MASSACHUSETTS

CITY           SKY/WX    TMP DP  RH WIND       PRES   REMARKS
BOSTON         MOCLDY    47  31  53 NW24G36   29.61R
BEVERLY        CLOUDY    46  32  58 NW16G29   29.58R
LAWRENCE       PTCLDY    45  30  55 NW18G26   29.61R
BEDFORD        CLOUDY    45  32  60 NW14G29   29.62R
BLUE HILL        N/A     44  32  62 NW20G33   29.58R
NORWOOD        CLOUDY    47  32  56 NW15G30   29.62R
MARSHFIELD       N/A    N/A N/A N/A MISG        N/A
PLYMOUTH       MOCLDY    46  31  55 NW18G31   29.58R
TAUNTON        CLOUDY    49  32  52 NW9G26    29.61R
NEW BEDFORD    MOCLDY    47  32  56 NW13G24   29.60R
$$

MAZALL-240500-
CAPE COD AND THE ISLANDS

CITY           SKY/WX    TMP DP  RH WIND       PRES   REMARKS
FALMOUTH       CLOUDY    48  34  57 NW20G31   29.57R
HYANNIS        CLOUDY    48  35  60 NW17G29   29.53R
CHATHAM        CLOUDY    47  36  65 NW16G31   29.54R
PROVINCETOWN   CLOUDY    45  36  70 MISG      29.56R
NANTUCKET      CLOUDY    49  34  56 NW24G31   29.55R
MARTHAS VNYRD  MOCLDY    49  32  52 NW22G33   29.58R
$$

MAZALL-240500-
CENTRAL AND WESTERN MASSACHUSETTS

CITY           SKY/WX    TMP DP  RH WIND       PRES   REMARKS
WORCESTER      CLOUDY    42  28  57 NW18G28   29.64R
FITCHBURG      CLOUDY    46  29  51 NW18G30   29.65R
ORANGE         CLOUDY    44  28  53 NW18G24   29.68R
SPRINGFIELD    CLOUDY    46  29  50 NW21G33   29.69R
WESTFIELD      CLOUDY    47  28  47 NW15G22   29.71R
NORTH ADAMS    CLOUDY    43  24  47 W10G18    29.75R
PITTSFIELD     CLOUDY    38  29  70 W14G25    29.73R WCI  30
$$

RIZALL-240500-
RHODE ISLAND

CITY           SKY/WX    TMP DP  RH WIND       PRES   REMARKS
PROVIDENCE     CLOUDY    47  31  53 NW15G24   29.64R
NEWPORT        CLOUDY    47  32  56 NW20G28   29.62R
BLOCK ISLAND   CLOUDY    46  32  57 NW13G20   29.66R
SMITHFIELD     CLOUDY    45  28  53 NW17G25   29.64R
WESTERLY       CLOUDY    47  32  56 NW9G18    29.68R
$$

CTZALL-240500-
CONNECTICUT

CITY           SKY/WX    TMP DP  RH WIND       PRES   REMARKS
BRADLEY INTL   CLOUDY    45  30  55 NW16G24   29.71R
HARTFORD       CLOUDY    46  30  53 NW16G22   29.73R
BRIDGEPORT     CLOUDY    48  28  46 NW21G36   29.76R
DANBURY        PTCLDY    45  21  38 NW17G38   29.79R
GROTON         CLOUDY    47  32  56 NW14G22   29.68R
NEW HAVEN      CLOUDY    48  29  47 NW10G26   29.75R
CHESTER        FAIR      45  32  61 NW15G26   29.71R
MERIDEN        CLOUDY    46  28  49 N15G30    29.74R
WILLIMANTIC    CLOUDY    47  30  51 NW12G21   29.69R
OXFORD         CLOUDY    43  27  52 NW14G25   29.77R
$$

MEZ002-015-021-024-NHZ003-005-008-011-012-014-VTZ005-008-240500-
NORTHERN NEW ENGLAND

CITY           SKY/WX    TMP DP  RH WIND       PRES   REMARKS
PORTLAND ME    CLOUDY    45  33  63 NW15G23   29.54R
BANGOR ME      LGT RAIN  40  34  79 N18       29.47F WCI  31
CONCORD NH     CLOUDY    44  30  57 NW21G29   29.62R
MANCHESTER NH  MOCLDY    46  30  53 NW16G25   29.61R
NASHUA NH      PTCLDY    46  30  54 N18G33    29.63R
PORTSMOUTH NH  MOCLDY    45  32  59 NW16G24   29.55R
JAFFREY NH     CLOUDY    42  27  55 NW9G22    29.65R
KEENE NH       CLOUDY    45  25  45 NW20G28   29.68S
BURLINGTON VT  CLOUDY    44  24  45 NW18      29.78R
MT. WASHINGTON SNOW      18  18 100 N51G74      N/A  VSB 0   WCI  -6
$$

NYZ052-076-240500-
EASTERN NEW YORK

CITY           SKY/WX    TMP DP  RH WIND       PRES   REMARKS
ALBANY         PTCLDY    41  30  65 NW13      29.81R
NEW YORK CITY  PTCLDY    45  30  55 NW22G30   29.82R
$$

ANZALL-240500-
MARINE OBSERVATIONS

STATION/POSITION TIME  TEMP    WIND        PRES    VSBY  WAVE
                       AIR SEA DIR/SP/G                  HT/PER
                 (UTC) (F)     (DEG/KT/KT) (MB)    (MI)  (FT/S)
BOSTON BUOY      0350   46 42  320/ 21/ 29 1001.1R         4/ 4
BUZZARDS BAY     0300          320/ 31/ 37 1002.5R
NANTUCKET SOUND  0350   49 46  330/ 23/ 29  999.9R         4/ 4
MASS BAY-STELLWA 0304   45 40  310/ 19/ 23  999.1R  1 7/8  3/ 3
ISLE OF SHOALS   0300   46     310/ 23/ 24  999.2R
S OF BLOCK IS    0325      43                N/A           5/ 5
$$

......................KEY.........................
  SKY/WX - SKY CONDITION/PRESENT WEATHER
  TMP    - TEMPERATURE IN FAHRENHEIT
  DWPT   - DEWPOINT IN FAHRENHEIT
  RH     - RELATIVE HUMIDITY IN PERCENT
  WIND   - DIRECTION AND SPEED IN MPH
  PRES   - MEAN SEA LEVEL PRESSURE IN INCHES OF HG
  WCI    - WIND CHILL INDEX
  VSB    - VISIBILITY IN MILES
  HX     - HEAT INDEX
  TC     - TEMPERATURE IN CELSIUS
  VRB    - VARIABLE WIND DIRECTION
  N/A    - NOT AVAILABLE



USA.gov is the U.S. government's official web portal to all federal, state and local government web resources and services.